Simultaneous Nadir Overpasses (SNOs) Predictions

Prediction of SNOs between TERRA and METOP-C Satellite Orbit:

Table of predicted SNOs for the next 14.0 days since TLE Epoch: 7/6/2019
Index Date (TERRA) Time (TERRA) Lat,Lon (TERRA) SZA (TERRA ) Date (METOP-C) Time (METOP-C) Lat,Lon (METOP-C) SZA (METOP-C ) Distance(km) Time Diff (sec)
1 07/07/2019 06:22:15 -81.29, -48.48 118.54 07/07/2019 06:21:56 -81.30, -48.41 118.54 1.38 19
2 07/07/2019 07:11:41 81.30, 119.24 61.48 07/07/2019 07:12:36 81.30, 119.20 61.50 0.88 55
3 07/10/2019 01:56:29 -81.30, 18.10 118.21 07/10/2019 01:56:19 -81.30, 17.99 118.23 1.87 10
4 07/10/2019 02:45:55 81.31,-174.21 61.80 07/10/2019 02:46:59 81.30,-174.37 61.82 2.76 64
5 07/12/2019 20:41:35 80.82, -90.22 61.03 07/12/2019 20:40:22 81.08, -91.29 61.08 34.61 73
6 07/12/2019 21:30:42 -81.31, 84.63 117.84 07/12/2019 21:30:40 -81.31, 84.77 117.83 2.47 2
7 07/12/2019 22:20:08 81.31,-107.70 62.17 07/12/2019 22:21:20 81.31,-107.56 62.23 2.48 72
8 07/15/2019 16:15:30 81.29, -16.92 62.52 07/15/2019 16:14:24 81.30, -16.81 62.50 2.06 66
9 07/15/2019 17:04:56 -81.31, 151.11 117.42 07/15/2019 17:05:03 -81.31, 151.17 117.42 1.12 7
10 07/18/2019 11:49:43 81.31, 49.87 63.03 07/18/2019 11:48:46 81.30, 50.00 63.01 2.26 57




NCC Satellite Simultaneous Nadir Overpasses (SNOs) Prediction Service
